Weather History for Point Mugu, CA

Change the Weather History Date:

Thursday, March 13, 2014

  Actual Average Record
Temperature  
Mean Temperature 61 °F -  
Max Temperature 68 °F 61 °F 68 °F (2014)
Min Temperature 54 °F 44 °F 37 °F (2006)
Degree Days  
Heating Degree Days 4    
Growing Degree Days 11 (Base 50)    
Moisture  
Dew Point 53 °F    
Average Humidity 78    
Maximum Humidity 89    
Minimum Humidity 61    
Precipitation  
Precipitation 0.00 in - - ()
Sea Level Pressure  
Sea Level Pressure 29.96 in    
Wind  
Wind Speed 5 mph (NNW)    
Max Wind Speed 13 mph    
Max Gust Speed -    
Visibility 7 miles    
Events      
Averages and records for this station are not official NWS values.
T = Trace of Precipitation, MM = Missing Value Source: NWS Daily Summary

Daily Weather History Graph

Daily Weather History Graph

Search for Another Location

Airport:

Trip Planner

Search our weather history database for the weather conditions in past years. The results will help you decide how hot, cold, wet, or windy it might be!

Date:

Astronomy

Mar. 13, 2014 Rise Set
Actual Time 7:09 AM PDT 7:02 PM PDT
Civil Twilight 6:44 AM PDT 7:27 PM PDT
Nautical Twilight 6:15 AM PDT 7:56 PM PDT
Astronomical Twilight 5:46 AM PDT 8:26 PM PDT
Moon 4:38 PM PDT (3/13) 5:13 AM PDT (3/13)
Length of Visible Light 12h 43m
Length of Day
11h 53m
Waxing Gibbous, 92% of the Moon is Illuminated
Mar 13
Waxing Gibbous
Mar 16
Full
Mar 23
Last Quarter
Mar 30
New
Apr 7
First Quarter

Hourly Weather History & Observations

Time (PDT) Temp. Dew Point Humidity Pressure Visibility Wind Dir Wind Speed Gust Speed Precip Events Conditions
12:54 AM 57.9 °F 54.0 °F 87% 29.98 in - NE 4.6 mph - N/A   Overcast
1:54 AM 59.0 °F 54.0 °F 83% 29.97 in - NE 4.6 mph - N/A   Overcast
2:27 AM 57.9 °F 53.1 °F 84% 29.96 in - ENE 5.8 mph - N/A   Scattered Clouds
2:54 AM 57.9 °F 53.1 °F 84% 29.96 in - NE 3.5 mph - N/A   Clear
3:54 AM 55.9 °F 52.0 °F 87% 29.93 in - ENE 4.6 mph - N/A   Clear
4:26 AM 57.0 °F 52.0 °F 83% 29.93 in - Calm Calm - N/A   Mostly Cloudy
4:54 AM 55.9 °F 52.0 °F 87% 29.94 in - Calm Calm - N/A   Overcast
5:29 AM 55.0 °F 51.1 °F 86% 29.93 in - NNW 4.6 mph - N/A   Scattered Clouds
5:47 AM 55.0 °F 51.1 °F 86% 29.94 in - NW 4.6 mph - N/A   Mostly Cloudy
5:54 AM 55.9 °F 52.0 °F 87% 29.94 in - Calm Calm - N/A   Mostly Cloudy
6:05 AM 55.0 °F 51.1 °F 86% 29.94 in 5.0 mi NNW 4.6 mph - N/A   Mostly Cloudy
6:54 AM 54.0 °F 50.0 °F 86% 29.95 in 7.0 mi ENE 5.8 mph - N/A   Scattered Clouds
7:16 AM 54.0 °F 50.0 °F 86% 29.96 in 7.0 mi North 4.6 mph - N/A   Mostly Cloudy
7:54 AM 55.0 °F 51.1 °F 86% 29.97 in 7.0 mi NNE 5.8 mph - N/A   Mostly Cloudy
8:18 AM 57.0 °F 51.1 °F 81% 29.97 in 7.0 mi NE 3.5 mph - N/A   Scattered Clouds
8:54 AM 61.0 °F 53.1 °F 75% 29.98 in 7.0 mi NE 3.5 mph - N/A   Scattered Clouds
9:54 AM 64.9 °F 53.1 °F 65% 29.99 in 7.0 mi Variable 3.5 mph - N/A   Partly Cloudy
10:54 AM 66.0 °F 53.1 °F 63% 29.99 in 7.0 mi West 6.9 mph - N/A   Partly Cloudy
11:54 AM 66.9 °F 53.1 °F 61% 29.97 in 7.0 mi West 9.2 mph - N/A   Partly Cloudy
12:54 PM 66.9 °F 55.0 °F 66% 29.97 in 7.0 mi West 12.7 mph - N/A   Partly Cloudy
1:54 PM 68.0 °F 54.0 °F 61% 29.95 in 7.0 mi West 8.1 mph - N/A   Scattered Clouds
2:54 PM 66.9 °F 55.0 °F 66% 29.94 in 7.0 mi WSW 8.1 mph - N/A   Scattered Clouds
3:54 PM 66.9 °F 55.0 °F 66% 29.94 in 7.0 mi WSW 9.2 mph - N/A   Scattered Clouds
4:54 PM 66.0 °F 54.0 °F 65% 29.93 in 7.0 mi WSW 5.8 mph - N/A   Scattered Clouds
5:29 PM 64.9 °F 54.0 °F 68% 29.92 in 7.0 mi SSW 5.8 mph - N/A   Partly Cloudy
5:54 PM 64.0 °F 55.0 °F 73% 29.93 in 7.0 mi SSW 6.9 mph - N/A   Partly Cloudy
6:54 PM 62.1 °F 54.0 °F 75% 29.94 in 7.0 mi SSE 5.8 mph - N/A   Partly Cloudy
7:54 PM 61.0 °F 54.0 °F 78% 29.95 in 7.0 mi Calm Calm - N/A   Clear
8:54 PM 59.0 °F 54.0 °F 83% 29.96 in 7.0 mi Calm Calm - N/A   Clear
9:54 PM 55.0 °F 52.0 °F 89% 29.99 in 7.0 mi ESE 4.6 mph - N/A   Clear
10:54 PM 57.0 °F 52.0 °F 83% 30.01 in 7.0 mi Calm Calm - N/A   Clear
11:54 PM 59.0 °F 54.0 °F 83% 30.01 in - South 4.6 mph - N/A   Clear